Regional Weather Roundup
Issued by NWS

Home | Current Version | Previous Version | Text Only | Print | Product List | Glossary On
Versions: 1 2 3 4 5 6 7 8 9 10 11 12 13 14 15 16 17 18 19 20 21 22 23 24 25 26 27 28 29 30 31 32 33 34 35 36 37 38
000
ASUS44 KBMX 191210
RWRAL

ALABAMA REGIONAL WEATHER ROUNDUP
NATIONAL WEATHER SERVICE BIRMINGHAM AL
700 AM CDT FRI SEP 19 2014

NOTE: "FAIR" INDICATES FEW OR NO CLOUDS BELOW 12,000 FEET
WITH NO SIGNIFICANT WEATHER AND/OR OBSTRUCTIONS TO VISIBILITY.

THE REMARK "TC" DENOTES TEMPERATURE IN DEGREES CELSIUS.

ALZ001>011-014-016>018-020-191300-
NORTH ALABAMA

CITY           SKY/WX    TMP DP  RH WIND       PRES   REMARKS
MUSCLE SHOALS  FOG       61  59  94 CALM      30.04R VSB 1/2
6HR MIN TEMP:  62; 6HR MAX TEMP:  69;

HUNTSVILLE     PTCLDY    66  61  84 E3        30.03R
6HR MIN TEMP:  65; 6HR MAX TEMP:  69;

DECATUR        CLEAR     62  59  90 CALM      30.04R
6HR MIN TEMP:  62; 6HR MAX TEMP:  70;

HALEYVILLE     FAIR      64  64 100 CALM      30.06R FOG
6HR MIN TEMP:  64; 6HR MAX TEMP:  66; 6HR PCP:  0.01;

GADSDEN        PTCLDY    64  57  77 N5        30.04R
6HR MIN TEMP:  63; 6HR MAX TEMP:  70;

$$

ALZ012-013-022-023-030>036-040>044-191300-
WEST CENTRAL ALABAMA

CITY           SKY/WX    TMP DP  RH WIND       PRES   REMARKS
TUSCALOOSA     MOCLDY    69  67  93 NW5       30.00R
6HR MIN TEMP:  69; 6HR MAX TEMP:  70; 6HR PCP: TRACE;

$$

ALZ015-024>027-033>036-040>044-191300-
CENTRAL ALABAMA

CITY           SKY/WX    TMP DP  RH WIND       PRES   REMARKS
BIRMINGHAM     MOCLDY    71  62  73 E6        30.04R
6HR MIN TEMP:  70; 6HR MAX TEMP:  71;

MONTGOMERY     CLEAR     68  64  87 CALM      30.01R
6HR MIN TEMP:  67; 6HR MAX TEMP:  73;

SHELBY CO ARPT MOCLDY    70  66  87 E3        30.02R
6HR MIN TEMP:  70; 6HR MAX TEMP:  73;

MAXWELL AFB    PTCLDY    68  67  96 N3        30.01R
6HR MIN TEMP:  68; 6HR MAX TEMP:  72;

GREENVILLE     FAIR      66  61  84 N3        29.99R
6HR MIN TEMP:  65; 6HR MAX TEMP:  70;

$$

ALZ019-021-028-029-037-038-045>048-191300-
EAST CENTRAL ALABAMA

CITY           SKY/WX    TMP DP  RH WIND       PRES   REMARKS
ANNISTON       PTCLDY    68  64  87 NE5       30.04R
6HR MIN TEMP:  68; 6HR MAX TEMP:  72; 6HR PCP:  0.03;

ALEXANDER CITY PTCLDY    69  66  93 E3        30.03R
6HR MIN TEMP:  69; 6HR MAX TEMP:  71;

AUBURN         PTCLDY    66  63  88 E6        30.06R
6HR MIN TEMP:  66; 6HR MAX TEMP:  70;

$$

ALZ051>064-191300-
SOUTHWEST ALABAMA

CITY           SKY/WX    TMP DP  RH WIND       PRES   REMARKS
MOBILE         CLOUDY    71  71 100 CALM      29.97R
6HR MIN TEMP:  70; 6HR MAX TEMP:  71; 6HR PCP:  0.01;

BROOKLEY FIELD LGT RAIN  73  71  93 SW5       29.97R
6HR MIN TEMP:  73; 6HR MAX TEMP:  74; 6HR PCP:  0.01;

EVERGREEN      MOCLDY    68  65  90 CALM      29.98R
6HR MIN TEMP:  68; 6HR MAX TEMP:  73;

$$

ALZ049-050-065>069-191300-
SOUTHEAST ALABAMA

CITY           SKY/WX    TMP DP  RH WIND       PRES   REMARKS
DOTHAN         CLOUDY    69  67  93 CALM      30.02R
6HR MIN TEMP:  68; 6HR MAX TEMP:  72;

OZARK          CLOUDY    68  66  92 NE5       29.99R
6HR MIN TEMP:  68; 6HR MAX TEMP:  72;

TROY           PTCLDY    66  63  90 CALM      30.01R
6HR MIN TEMP:  64; 6HR MAX TEMP:  69;

EUFAULA        FAIR      68  66  93 CALM      30.00R FOG
6HR MIN TEMP:  67; 6HR MAX TEMP:  71;

$$



USA.gov is the U.S. government's official web portal to all federal, state and local government web resources and services.